Voltar ao catálogo

STARLINK-11525

AtivoComunicaçõesVLEO
NORAD 62566·PAYLOAD·🇺🇸 United States

Lançado Jan 10, 2025 de Cape Canaveral Space Force Station

Loading…

Próximas Passagens (próximas 24 horas)

TLE

AtualizadoSource: CelesTrak SupGP

Época: Sep 14, 2026, 21:33 UTC

1 62566C 25006N   26257.89840278  .00044922  00000+0  34904-3 0  2576
2 62566  43.0009  79.8627 0001619 276.9949 129.1680 15.70806923    14

Acompanhe STARLINK-11525 em tempo real com AllMySat

Download on the App Store